This is the latest recevied weather packets stored in our database for station/object KF5WCW-1. If no packets are shown the sender has not sent any weather packets the latest 1 day(s).
| Time | Temp. | Humidity | Pressure | Rain* | Wind** | Luminosity | Snow |
|---|---|---|---|---|---|---|---|
| 1778121366 | 1.67° C | 87% | 0 hPa | 0 mm | - | - | - |
| 1778121066 | 1.67° C | 84% | 0 hPa | 0 mm | - | - | - |
| 1778120766 | 1.67° C | 83% | 0 hPa | 0 mm | - | - | - |
| 1778120466 | 2.22° C | 80% | 0 hPa | 0 mm | - | - | - |
| 1778120166 | 2.22° C | 79% | 0 hPa | 0 mm | - | - | - |
| 1778119866 | 2.22° C | 79% | 0 hPa | 0 mm | - | - | - |
| 1778119566 | 2.22° C | 80% | 0 hPa | 0 mm | - | - | - |
| 1778118966 | 2.22° C | 76% | 0 hPa | 0 mm | - | - | - |
| 1778118666 | 2.78° C | 77% | 0 hPa | 0 mm | - | - | - |
| 1778118366 | 2.78° C | 78% | 0 hPa | 0 mm | - | - | - |
| 1778118066 | 2.78° C | 77% | 0 hPa | 0 mm | - | - | - |
| 1778117466 | 3.33° C | 74% | 0 hPa | 0 mm | - | - | - |
| 1778117166 | 3.33° C | 71% | 0 hPa | 0 mm | - | - | - |
| 1778116866 | 3.33° C | 70% | 0 hPa | 0 mm | - | - | - |
| 1778116266 | 3.89° C | 70% | 0 hPa | 0 mm | - | - | - |
| 1778115966 | 3.33° C | 68% | 0 hPa | 0 mm | - | - | - |
| 1778115366 | 3.89° C | 68% | 0 hPa | 0 mm | - | - | - |
| 1778115066 | 3.89° C | 67% | 0 hPa | 0 mm | - | - | - |
| 1778114766 | 3.89° C | 68% | 0 hPa | 0 mm | - | - | - |
| 1778113567 | 3.89° C | 68% | 0 hPa | 0 mm | - | - | - |
| 1778113266 | 3.89° C | 69% | 0 hPa | 0 mm | - | - | - |
| 1778107567 | 3.33° C | 75% | 0 hPa | 0 mm | - | - | - |
| 1778106967 | 2.78° C | 77% | 0 hPa | 0 mm | - | - | - |
| 1778106667 | 3.33° C | 78% | 0 hPa | 0 mm | - | - | - |
| 1778106367 | 2.78° C | 78% | 0 hPa | 0 mm | - | - | - |
* Rain latest hour (hover to see other rain measurements)
** Current wind speed in m/s (hover to see current wind gust speed)